www.pogodaiklimat.ru

Погода и климат >> Архив погоды >> Россия >> Якутия >> Усть-Нера


ПОГОДА в Усть-Нере

  • Прогноз погоды в Усть-Нере
  • Монитор погоды в Усть-Нере
  • Климат города

АРХИВ ПОГОДЫ в Усть-Нере

Время (UTC), дата Ветер
(напр.,м/с)
 
Видим.   Явления Облачность Т
(С)
Тd
(С)
f
(%)
Тe
(С)
Тes
(С)
Комфортность P
(гПа)
Po
(гПа)
Тmin
(С)
Tmax
(С)
R
(мм)
R24
(мм)
S
(см)
12 15.11 штиль 0 10 км 9/0
[Ci]
-32.7 -35.8 74 -33 -33 опасность
обморожения
1021.7 949.4
15 15.11 штиль 0 10 км 10/0
[As trans]
-32.5 -35.5 74 -33 -33 опасность
обморожения
1019.0 946.9
18 15.11 ЮЗ 2 10 км 10/0
[As op]
-30.0 -33.0 75 -37 -37 опасность
обморожения
1015.9 944.7
21 15.11 ЮЗ 2 10 км слабый снег 10/0
[As op]
-28.9 -32.1 74 -36 -36 опасность
обморожения
1014.8 944.0 -36.7 0.4 18
00 16.11 ЮЗ 3 10 км слабый снег 10/0
[As op]
-28.3 -31.3 75 -38 -38 опасность
обморожения
1014.3 943.6
03 16.11 штиль 0 4000 м слабый снег 10/0
[As op]
-26.4 -29.6 74 -26 -26 1013.1 943.1
06 16.11 штиль 0 4000 м слабый снег 10/0
[As op]
-26.1 -29.1 76 -26 -26 1014.0 944.1
09 16.11 ЮЗ 2 4000 м слабый снег 10/0
[As op]
-25.5 -28.7 74 -32 -32 опасность
обморожения
1015.5 945.6 -25.4 0.7
12 16.11 ЮЗ 1 10 км слабый снег 10/0
[As op]
-25.2 -28.4 75 -29 -29 1017.3 947.4
15 16.11 В 1 10 км слабый снег 10/0
[As op]
-26.3 -29.4 75 -30 -30 1019.9 949.4
18 16.11 СВ 1 10 км слабый снег 10/0
[As op]
-29.3 -32.4 74 -33 -33 опасность
обморожения
1022.6 951.1
21 16.11 штиль 0 10 км в посл. час снег 6/0
[As trans]
-32.2 -35.3 74 -32 -32 опасность
обморожения
1024.5 952.2 -32.3 0.5 19
00 17.11 штиль 0 20 км {снег} 9/0
[Ac trans Ci fib]
-31.3 -34.3 75 -31 -31 опасность
обморожения
1025.6 953.3 -33.4
03 17.11 ЮЗ 1 20 км 9/0
[Ac trans Ci sp]
-29.3 -32.4 74 -33 -33 опасность
обморожения
1024.6 953.0
06 17.11 штиль 0 50 км 3/0
[Ci fib]
-31.7 -34.8 74 -32 -32 опасность
обморожения
1025.5 953.2
09 17.11 штиль 0 10 км ясно -34.4 -37.4 74 -34 -34 опасность
обморожения
1026.6 953.4 -29.2
12 17.11 штиль 0 10 км слабый снег 10/0
[Cs]
-34.8 -37.7 75 -35 -35 опасность
обморожения
1026.4 953.0
15 17.11 штиль 0 10 км {снег} 8/0
[Ci fib]
-37.2 -40.1 74 -37 -37 опасность
обморожения
1025.8 951.9
18 17.11 штиль 0 10 км {снег} 8/0
[Ci fib]
-34.3 -37.1 76 -34 -34 опасность
обморожения
1023.9 950.9
21 17.11 З 2 10 км 6/0
[Ci fib]
-35.3 -38.4 73 -44 -44 опасность
обморожения
1023.7 950.4 -38.0 0.2 19
00 18.11 З 3 20 км слабый снег 10/0
[As trans Cs]
-35.2 -38.0 75 -46 -46 опасность
обморожения
1023.2 950.1
03 18.11 З 3 20 км слабый снег 10/0
[As trans Cs]
-34.4 -37.4 74 -45 -45 опасность
обморожения
1022.8 949.8
06 18.11 З 2 20 км слабый снег 10/0
[Ac trans Cs]
-35.2 -38.0 75 -44 -44 опасность
обморожения
1023.3 950.2
09 18.11 З 2 10 км {снег} 10/0
[Ci fib]
-36.9 -39.8 74 -46 -46 опасность
обморожения
1024.9 951.1 -34.1 0.3
12 18.11 З 2 10 км {снег} 4/0
[Ci fib]
-38.6 -41.4 75 -48 -48 опасность
обморожения
1026.6 952.2
15 18.11 штиль 0 10 км 4/0
[Ci fib]
-42.7 -45.6 73 -43 -43 опасность
обморожения
1029.2 953.4
18 18.11 штиль 0 10 км ясно -44.4 -47.6 70 -44 -44 опасность
обморожения
1031.4 954.7
21 18.11 штиль 0 10 км ясно -45.7 -49.2 67 -46 -46 опасность
обморожения
1033.1 956.0 -45.8 19
00 19.11 штиль 0 20 км ясно -45.6 -49.2 67 -46 -46 опасность
обморожения
1033.4 956.3 -45.9
03 19.11 штиль 0 20 км ясно -43.8 -46.9 71 -44 -44 опасность
обморожения
1033.1 956.5
06 19.11 З 2 10 км ясно -43.9 -46.9 72 -54 -54 опасность
обморожения
1032.6 956.0
09 19.11 штиль 0 4000 м дымка ясно -46.3 -49.2 72 -46 -46 опасность
обморожения
1032.4 955.0 -43.8
12 19.11 штиль 0 4000 м дымка 8/0
[Ci fib]
-42.6 -46.2 68 -43 -43 опасность
обморожения
1028.8 953.0
15 19.11 штиль 0 4000 м дымка 10/0
[Ci fib]
-40.7 -43.9 71 -41 -41 опасность
обморожения
1024.3 949.3
18 19.11 штиль 0 4000 м слабый снег 10/0
[Cs]
-39.7 -42.9 71 -40 -40 опасность
обморожения
1021.0 946.7
21 19.11 штиль 0 4000 м слабый снег 10/0
[As op]
-37.8 -41.2 70 -38 -38 опасность
обморожения
1016.6 943.1 -46.7 0.2 19
00 20.11 З 2 4000 м слабый снег 10/0
[As op]
-36.7 -40.1 71 -45 -45 опасность
обморожения
1012.3 939.5
03 20.11 ЮЗ 3 10 км слабый снег 10/0
[As op]
-35.3 -39.0 69 -46 -46 опасность
обморожения
1006.1 934.1
06 20.11 ЮЗ 1 4000 м слабый снег 10/0
[As op]
-34.2 -37.1 75 -39 -39 опасность
обморожения
1002.5 931.1
09 20.11 ЮЗ 2 4000 м слабый снег 10/0
[As op]
-33.9 -36.8 75 -42 -42 опасность
обморожения
1000.8 929.5 -33.8 0.6
12 20.11 ЮЗ 1 4000 м слабый снег 10/0
[As op]
-32.5 -35.5 74 -37 -37 опасность
обморожения
999.3 928.6
15 20.11 ЮЗ 2 4000 м слабый снег 10/0
[As op]
-31.7 -34.8 74 -39 -39 опасность
обморожения
999.0 928.6
18 20.11 З 4 4000 м слабый снег 10/0
[As op]
-30.7 -33.6 76 -42 -42 опасность
обморожения
999.1 929.0
21 20.11 штиль 0 4000 м слабый снег 10/0
[As op]
-31.6 -34.5 75 -32 -32 опасность
обморожения
1000.0 929.5 -34.0 1 20
00 21.11 штиль 0 20 км {снег} 8/0
[Ac trans Ci fib]
-37.1 -40.1 73 -37 -37 опасность
обморожения
1002.9 930.6 -37.3
03 21.11 штиль 0 20 км 10/0
[Ac trans Ci sp]
-31.9 -35.7 69 -32 -32 опасность
обморожения
1002.8 930.9
06 21.11 З 3 20 км 10/0
[As trans Ci sp]
-31.9 -35.7 69 -42 -42 опасность
обморожения
1002.1 931.4
09 21.11 З 5 10 км слабый снег 10/0
[As trans Cs]
-32.0 -35.7 70 -45 -45 опасность
обморожения
1003.5 932.6 -31.3 0.0
12 21.11 З 6
{10}
10 км слабый снег {метель} 10/0
[Cs]
-33.3 -37.0 69 -48 -48 опасность
обморожения
1004.3 932.9
15 21.11 З 7
{11}
10 км позёмок {снег, метель} 10/0
[Ci fib]
-34.9 -38.4 70 -51 -51 опасность
обморожения
1005.8 933.9
18 21.11 З 4
{10}
10 км {снег, метель} 4/0
[Ci fib]
-37.5 -41.2 68 -50 -50 опасность
обморожения
1007.8 935.0
21 21.11 З 3 10 км 4/0
[Ci fib]
-39.0 -42.5 69 -50 -50 опасность
обморожения
1009.6 936.3 -39.1 0.2 20
00 22.11 З 3 50 км ясно -42.0 -45.0 72 -54 -54 опасность
обморожения
1012.4 937.9 -42.1
03 22.11 З 1 50 км 6/0
[Ac trans Ci fib]
-40.1 -43.4 70 -45 -45 опасность
обморожения
1013.0 939.1
06 22.11 штиль 0 20 км 4/0
[Ci fib]
-42.5 -45.6 71 -43 -43 опасность
обморожения
1015.7 940.8

 

Местоположение метеостанции Усть-Нера (Якутия, Россия): широта 64.53 долгота 143.10 высота над уровнем моря 519 м.

В архиве по умолчанию представлена погода в Усть-Нере за последнюю неделю. Архивные данные за месяц целиком и за предыдущие месяцы, начиная с января 2011 года, Вы можете получить, выбрав интересующий диапазон дат из раскрывающегося списка и нажав кнопку "Ввод!".

Внимание! Время в таблицах - всемирное. Для получения местного времени необходимо прибавить поправку, которая в Усть-Нере равна 10 ч.

Смотрите также архив погоды в соседних городах и на ближайших метеорологических станциях:

Погода в Юртах (Якутия, Россия) (82 км)
Погода в Оймяконе (Якутия, Россия) (142 км)
Погода в Делянкире (Якутия, Россия) (144 км)
Погода в Агаякане (Якутия, Россия) (150 км)
Погода в Усть-Моме (Якутия, Россия) (214 км)
Погода в Восточной (Якутия, Россия) (224 км)
Погода в Сусумане (Магаданская область, Россия) (314 км)
Погода в Иэме (Якутия, Россия) (355 км)
Погода в Томпо (Якутия, Россия) (359 км)
Погода в Теплом Ключе (Якутия, Россия) (367 км)

Пояснения к столбцам:

Ветер - указаны скорость ветра в м/с - средняя за 10 мин, порывы в срок и между сроками (в фигурных скобках) и направление, откуда дует ветер: С - северный, СВ - северо-восточный, В - восточный, ЮВ - юго-восточный, Ю - южный, ЮЗ - юго-западный, З - западный, СЗ - северо-западный.
Видимость - горизонтальная дальность видимости в метрах или километрах. При видимости от 1 до 10 км при отсутствии осадков обычно наблюдается дымка, при ухудшении видимости до 1 км и менее - туман. В сухую погоду видимость может ухудшаться дымом, пылью или мглою.
Явления - указаны атмосферные явления, наблюдавшиеся в срок или в последний час перед сроком; фигурными скобками обозначены явления, наблюдавшиеся между сроками (за 1-3 часа до срока); квадратными скобками обозначены град или гололедные отложения с указанием их диаметра в мм.
Облачность - указаны через наклонную черту общая и нижняя облачность в баллах и высота нижней границы облаков в метрах; квадратными скобками обозначены формы облаков: Ci - перистые, Cs - перисто-слоистые, Cc - перисто-кучевые, Ac - высококучевые, As - высокослоистые, Sc - слоисто-кучевые, Ns - слоисто-дождевые, Cu - кучевые, Cb - кучево-дождевые. Подробнее классификацию облаков см. в Атласе облаков (PDF).
T - Температура воздуха - температура, измеренная на высоте 2 м над землей.
Td - Температура точки росы - температура, при понижении до которой содержащийся в воздухе водяной пар достигнет насыщения.
f - Относительная влажность воздуха - влажноcть воздуха, измеренная на высоте 2 м над землей.
Te - Эффективная температура - температура, которую ощущает одетый по сезону человек в тени. Характеристика душности погоды. При расчете учитывается влияние влажности воздуха и скорости ветра на теплоощущения человека.
Tes - Эффективная температура на солнце - температура, которую ощущает человек, с поправкой на солнечный нагрев. Характеристика знойности погоды. Зависит от высоты солнца над горизонтом, облачности и скорости ветра. Ночью, в пасмурную погоду, а также при ветре 12 м/с и более поправка равна нулю.
P - Атмосферное давление - приведенное к уровню моря атмосферное давление.
Po - Атмосферное давление - измеренное на уровне метеостанции атмосферное давление.
Tmin - Минимальная температура - минимум температуры воздуха на высоте 2 м над землей.
Tmax - Максимальная температура - максимум температуры воздуха на высоте 2 м над землей.
R - Количество осадков - Количество выпавших осадков за период времени, мм. При наведении курсора мыши на число - период времени, за который выпало указанное количество осадков.
R24 - Количество осадков - Количество выпавших осадков за 24 часа, мм.
S - Снежный покров - Высота снежного покрова, см. При наведении курсора мыши на число - состояние снежного покрова и степень покрытия местности в баллах.